Погода в Андреевке

Украина / Днепропетровская область     47˚54′01″N   36˚11′31″E
темп.,
°C
ветер,
м/с
пор.,
м/с
влажн.,
%
обл.,
%
осадки,
мм/ч
давл.,
гПа
погр.,
м
5 декабря, сб
сб523:00−2˚в612760 0.0 1030435
02:00−2˚в612720 0.0 1031429
05:00−3˚в611720 0.0 1030434
08:00−3˚в713700 0.0 1031455
11:00+1˚в712550 0.0 1031545
14:00+2˚в712510 0.0 1031587
17:00−1˚в614370 0.0 1032509
20:00−2˚в715420 0.0 1033457
6 декабря, вс
вс623:00−3˚в613430 0.0 1033439
02:00−4˚в613410 0.0 1034433
05:00−4˚всв613420 0.0 1034424
08:00−5˚всв714450 0.0 1034453
11:00−1˚в712370 0.0 1034606
14:00−1˚всв812440 0.0 1033679
17:00−4˚всв713590 0.0 1033540
20:00−5˚в715610 0.0 1033577
7 декабря, пн
пн723:00−6˚в715570 0.0 1033590
02:00−6˚в816600 0.0 1033561
05:00−6˚в817600 0.0 1032561
08:00−6˚в916620 0.0 1032597
11:00−2˚в1016470 0.0 1032671
14:00−1˚в915400 0.0 1031736
17:00−3˚в716460 0.0 1031653
20:00−4˚в816550 0.0 1031609
8 декабря, вт
вт823:00−5˚в816620 0.0 1030590
02:00−5˚в816650 0.0 1029601
05:00−5˚в816690 0.0 1029619
08:00−5˚вюв816690 0.0 1028615
11:00−2˚вюв913590 0.0 1028641
14:00−1˚вюв813600 0.0 1027650
17:00−2˚вюв816732 0.0 1027557
20:00−2˚вюв8158024 0.0 1027526
9 декабря, ср
ср923:00−3˚вюв8157593 0.0 1027516
02:00−3˚вюв7137797 0.0 1028548
05:00−3˚вюв71278100 0.0 1027547
08:00−2˚вюв71180100 0.0 1028619
11:00вюв71075100 0.0 1028728
14:00вюв6975100 0.0 1028699
17:00−1˚в51082100 0.0 1028499
20:00−1˚вюв61080100 0.0 1028445